METEOSAT-5 (MOP-2) 1 21140U 91015B 10251.56026457 -.00000059 00000-0 10000-3 0 3496 2 21140 11.8649 44.3175 0004725 125.5705 234.5639 0.98451408 73490 METEOSAT-6 (MOP-3) 1 22912U 93073B 10251.99790381 .00000000 00000-0 10000-3 0 7692 2 22912 9.3830 54.5125 0004784 202.6388 157.4811 1.00267531 59977 HIMAWARI-5 (GMS-5) 1 23522U 95011B 10247.11281981 .00000054 00000-0 10000-3 0 4689 2 23522 8.5583 57.6381 0008070 350.2927 9.8443 0.99405260 56350 GOES 10 1 24786U 97019A 10251.76358035 -.00000253 00000-0 10000-3 0 5901 2 24786 4.6181 67.7487 0007918 49.5313 310.8703 0.99075084 48970 ORBVIEW 2 (SEASTAR) 1 24883U 97037A 10252.82697567 -.00000080 00000-0 -14324-4 0 2307 2 24883 98.3421 22.7991 0001532 211.7784 148.3321 14.32198808697878 METEOSAT-7 1 24932U 97049B 10251.01915435 .00000050 00000-0 00000+0 0 2050 2 24932 6.2631 64.1030 0000542 254.8127 92.4185 1.00271806 47672 NOAA 15 1 25338U 98030A 10250.38503662 -.00000044 00000-0 -76097-7 0 5130 2 25338 98.6267 235.8669 0010405 190.4340 169.6651 14.24852569640450 GOES 11 1 26352U 00022A 10252.53587896 .00000071 00000-0 10000-3 0 9917 2 26352 0.2852 261.2864 0004413 291.1742 213.4877 1.00268503 37911 FENGYUN 2B 1 26382U 00032A 10251.67820815 .00000000 00000-0 10000-3 0 3068 2 26382 5.4168 66.8974 0002740 194.9897 165.2878 1.00094278 37353 NOAA 16 1 26536U 00055A 10252.09151794 -.00000001 00000-0 24764-4 0 9919 2 26536 99.1685 271.5327 0011371 101.6462 258.5958 14.12575755513678 GOES 12 1 26871U 01031A 10250.33425144 -.00000302 00000-0 10000-3 0 7407 2 26871 0.7482 81.3754 0001079 84.5642 240.8947 1.00282453 33499 FENGYUN 1D 1 27431U 02024B 10252.77239254 .00000051 00000-0 53499-4 0 3257 2 27431 98.6752 229.8692 0014438 218.1081 141.9070 14.09299437428133 NOAA 17 1 27453U 02032A 10252.37366264 .00000222 00000-0 11427-3 0 9854 2 27453 98.4233 299.3937 0010772 249.9216 110.0805 14.24188702426682 METEOSAT-8 (MSG-1) 1 27509U 02040B 10252.04948288 .00000045 00000-0 10000-3 0 5654 2 27509 0.8504 50.2697 0000733 260.1950 64.6320 1.00276308 29501 KALPANA-1 (METSAT 1) 1 27525U 02043A 10252.76336612 -.00000096 00000-0 10000-3 0 1570 2 27525 0.0548 264.9925 0006781 201.7547 230.7393 1.00271003 29300 INSAT-3A 1 27714U 03013A 10252.84345203 -.00000276 00000-0 10000-3 0 2754 2 27714 0.0091 136.3823 0004239 346.5180 263.0010 1.00270238 27211 FENGYUN 2C 1 28451U 04042A 10251.89478334 .00000000 00000-0 10000-3 0 9539 2 28451 2.4895 72.8631 0001122 222.1721 138.4325 1.00258726 21550 HIMAWARI 6 (MTSAT-1R) 1 28622U 05006A 10250.19546056 -.00000298 00000-0 10000-3 0 4130 2 28622 0.0328 289.7364 0002550 16.1625 250.6999 1.00271991 20234 NOAA 18 1 28654U 05018A 10252.37844721 -.00000107 00000-0 -34259-4 0 4740 2 28654 98.9558 198.4246 0014250 172.4629 187.6757 14.11386097273315 METEOSAT-9 (MSG-2) 1 28912U 05049B 10251.12480201 -.00000022 00000-0 10000-3 0 7354 2 28912 0.4196 300.5359 0000807 231.7550 219.7670 1.00272477 17344 MTSAT-2 1 28937U 06004A 10251.90110234 .00000000 00000-0 10000-3 0 8159 2 28937 0.0328 54.9660 0002806 89.6313 312.7004 1.00267535 16744 FORMOSAT 3A 1 29047U 06011A 10252.03853689 .00000268 00000-0 12486-3 0 3176 2 29047 71.9790 187.6512 0050392 92.2545 268.4321 14.27144019231761 FORMOSAT 3B 1 29048U 06011B 10251.71037375 .00000390 00000-0 17471-3 0 3813 2 29048 71.9694 103.2424 0044560 42.6331 317.8220 14.27173809234199 FORMOSAT 3C 1 29049U 06011C 10251.51412961 .00000361 00000-0 16364-3 0 3290 2 29049 72.0190 255.2227 0034172 103.7252 256.7683 14.27185177229943 FORMOSAT 3D 1 29050U 06011D 10251.80191568 .00001104 00000-0 26646-3 0 6160 2 29050 72.0100 31.8532 0053926 313.6327 46.0267 14.54253873236457 FORMOSAT 3E 1 29051U 06011E 10252.03735945 .00000373 00000-0 16522-3 0 3852 2 29051 72.0084 162.3976 0070100 330.3724 29.3417 14.27179734232608 FORMOSAT 3F 1 29052U 06011F 10252.36382135 .00000360 00000-0 16273-3 0 4061 2 29052 72.0332 225.2251 0039584 69.5493 290.9879 14.27199767230957 GOES 13 1 29155U 06018A 10252.47888729 -.00000269 00000-0 10000-3 0 2636 2 29155 0.0794 55.2961 0003751 29.7238 1.1412 1.00267487 15762 METOP-A 1 29499U 06044A 10252.60856057 .00000035 00000-0 35969-4 0 2081 2 29499 98.6650 310.6161 0001369 91.4392 268.6937 14.21508305201861 FENGYUN 2D 1 29640U 06053A 10251.77996122 -.00000213 00000-0 10000-3 0 9864 2 29640 0.8523 87.6089 0001323 237.4287 29.5642 1.00275693 13792 FENGYUN 3A 1 32958U 08026A 10252.65910925 .00000167 00000-0 10000-3 0 472 2 32958 98.7215 323.5950 0000445 26.7187 333.3990 14.19623470118559 NOAA 19 1 33591U 09005A 10252.31395311 .00000294 00000-0 18736-3 0 6698 2 33591 98.7925 192.6636 0014931 53.3141 306.9399 14.11083359 81778 GOES 14 1 35491U 09033A 10252.32540332 -.00000109 00000-0 10000-3 0 6294 2 35491 0.2732 82.0636 0002380 17.4939 261.0943 1.00270170 4433 METEOR-M 1 1 35865U 09049A 10252.79135492 .00000176 00000-0 10000-3 0 6411 2 35865 98.7506 305.9507 0002980 105.5652 254.5802 14.21831387 50746 GOES 15 1 36411U 10008A 10252.19928632 -.00000203 00000-0 10000-3 0 2447 2 36411 0.3995 260.0746 0004670 275.9536 154.5439 1.00271546 1921 COMS 1 1 36744U 10032A 10252.73679699 -.00000363 00000-0 10000-3 0 365 2 36744 0.0018 166.8765 0000572 1.0091 214.2100 1.00269374 900